Theta_e
301 301 301 301 300 300 301 301 301 301 302 304 304 305 306 306 305 305 305 303 304 304 304 303 306 313 313 309 315 317 312 313 310 309 310 311 312 314 316 318 318 318 319 323 321
301 301 300 300 300 300 301 301 302 304 306 307 307 306 306 306 305 311 310 310 309 308 306 309 305 310 315 312 312 313 315 316 309 309 311 311 312 313 315 316 318 318 320 320 322
300 300 300 300 301 302 302 302 306 307 308 307 306 307 307 306 305 315 311 312 313 314 314 307 312 308 312 311 310 311 317 316 314 314 313 311 312 314 315 314 316 317 317 321 323
300 301 300 301 302 302 302 306 308 308 308 306 306 307 307 307 302 306 308 310 310 307 308 308 314 312 311 310 310 308 310 315 317 317 316 316 318 316 316 315 317 318 318 320 324
300 301 300 301 302 303 304 307 308 308 306 306 307 307 307 307 307 308 308 308 308 308 307 311 315 311 310 310 312 309 308 311 314 316 317 318 317 318 319 320 320 320 320 320 322
300 301 301 301 303 303 306 307 306 306 306 306 308 307 308 306 308 309 310 309 309 309 308 308 314 312 309 309 310 311 311 311 312 312 314 316 317 318 320 321 321 321 322 322 321
300 301 301 302 303 304 307 307 306 306 306 306 308 307 308 308 310 310 310 311 311 310 310 310 310 312 310 308 310 311 310 310 310 311 311 313 313 314 317 319 320 321 322 322 322
300 301 301 303 303 306 306 306 306 307 306 306 308 308 309 309 310 310 310 311 311 311 311 311 309 308 310 312 311 312 311 310 309 310 311 313 311 312 314 316 318 319 320 321 322
300 301 302 303 303 306 306 306 307 307 307 308 308 308 309 309 310 309 310 311 311 311 311 310 309 308 308 309 310 312 314 312 312 309 311 311 314 314 315 317 317 319 319 320 321
300 301 302 303 304 306 306 308 308 307 308 309 309 309 309 309 309 309 310 311 312 311 311 309 309 305 303 307 311 313 313 314 315 313 310 311 312 312 314 315 316 317 319 320 321
300 301 302 304 305 305 307 308 308 308 308 309 309 309 309 309 309 310 310 312 312 311 310 308 306 306 306 306 309 311 312 312 311 311 312 311 312 312 312 315 314 315 317 319 321
301 301 303 305 305 306 308 308 308 308 307 309 310 309 309 309 309 309 310 312 310 310 310 310 310 307 306 307 308 310 312 310 309 310 312 314 315 313 311 314 315 317 317 317 319
302 301 304 306 306 307 308 308 308 308 308 309 309 309 309 309 309 309 310 312 311 312 312 312 311 309 307 307 308 308 309 311 311 311 311 312 316 316 314 314 316 318 319 318 320
303 302 305 307 307 308 308 308 309 308 304 307 308 309 309 309 309 310 310 312 312 311 310 310 310 311 309 308 307 308 308 310 312 312 313 315 317 313 314 314 314 315 317 319 318
305 303 306 308 308 308 309 309 309 309 305 307 308 309 309 309 309 310 311 312 312 312 312 313 311 310 311 311 309 308 308 311 311 313 314 315 315 315 312 314 314 314 317 318 318
306 304 308 309 309 309 309 309 310 305 307 308 308 309 308 309 309 310 310 311 312 311 312 313 312 311 309 310 310 310 310 310 310 311 316 314 315 315 312 315 316 315 316 318 318
308 308 309 309 308 308 309 309 306 305 307 309 309 309 308 309 310 310 311 311 312 311 306 311 314 313 310 309 310 310 309 309 313 314 316 313 315 315 314 313 313 313 315 318 319
307 308 306 306 307 308 308 304 308 308 309 309 309 308 309 310 311 311 311 312 313 311 312 310 313 314 312 311 311 312 310 308 309 313 311 312 315 315 315 315 315 316 317 319 319
306 303 307 308 306 308 308 302 306 309 310 309 308 310 310 310 311 311 312 312 313 311 311 311 309 313 313 314 311 312 314 310 311 312 311 311 313 313 313 314 314 314 315 317 320
303 305 308 305 304 308 304 308 306 308 309 308 309 311 313 310 311 310 312 312 313 311 311 312 314 313 313 313 313 312 312 315 315 313 317 313 313 314 314 314 314 319 312 316 319
302 304 308 303 306 307 301 302 306 308 307 308 309 310 310 313 310 310 312 312 313 313 311 312 313 311 311 316 316 314 314 312 313 311 314 315 313 313 313 318 313 314 322 316 317
301 299 304 302 303 300 302 303 305 307 306 306 307 308 311 312 310 310 312 312 311 310 311 311 312 311 310 311 312 313 313 313 313 314 314 312 310 320 323 324 322 325 329 318 316
302 303 303 302 299 299 300 303 304 306 305 306 306 309 309 311 310 312 311 311 310 311 310 310 313 310 310 314 313 314 314 313 313 316 316 317 316 326 328 328 330 328 323 322 333
300 299 301 301 301 300 301 302 304 305 305 305 305 307 310 310 309 310 310 309 310 309 309 311 311 312 313 316 313 317 315 313 314 316 316 319 324 329 332 333 331 331 333 339 338
299 298 300 297 299 299 299 301 304 304 305 304 307 309 308 308 308 310 310 309 309 309 309 311 313 314 313 312 313 313 314 314 315 314 317 318 325 325 327 330 335 335 338 337 334
298 299 299 300 300 298 299 302 302 303 304 304 305 306 306 307 308 309 308 309 310 308 307 305 312 314 314 312 313 313 312 312 314 314 317 320 323 321 325 331 335 334 332 330 329
298 298 299 300 298 298 299 301 301 301 303 304 305 305 306 306 307 306 306 306 307 306 306 307 309 311 314 318 314 315 313 313 316 315 318 318 323 321 324 329 326 326 326 324 323
Wind_Speed
23 22 22 22 23 23 23 22 20 19 18 19 19 20 21 21 23 26 26 15 3 7 10 15 14 8 11 15 15 11 3 10 9 7 5 1 3 11 8 16 17 11 22 10 22
25 24 24 25 25 24 22 20 16 16 16 17 21 24 24 24 25 9 9 7 7 13 11 8 10 10 8 12 13 7 7 11 6 7 4 6 4 8 4 3 4 10 18 12 23
26 25 26 25 25 23 20 16 14 12 14 19 22 22 20 21 16 6 5 6 16 14 15 16 9 10 10 8 13 8 13 12 4 15 12 6 6 14 5 9 13 14 19 15 21
29 29 29 28 27 21 17 13 12 13 17 21 20 21 22 14 3 7 11 12 17 21 22 15 9 5 4 8 9 5 10 21 4 23 5 4 4 5 22 19 7 9 20 21 19
31 32 32 30 26 19 13 10 13 15 18 20 18 23 17 7 4 7 9 10 11 15 10 9 11 7 4 4 10 6 3 4 21 28 21 18 14 9 16 16 16 17 20 26 20
33 33 34 31 22 16 9 9 14 18 20 18 15 22 12 3 10 12 14 14 14 17 13 8 9 13 5 5 5 4 3 13 19 18 11 14 19 18 1 6 14 16 19 22 20
34 35 34 30 20 14 9 11 17 20 19 15 15 20 13 4 15 17 16 16 14 15 14 14 13 13 3 4 8 10 8 8 7 5 8 9 17 26 27 31 31 29 22 22 23
37 36 34 27 18 11 10 14 17 19 16 13 17 16 7 6 18 22 19 17 18 18 14 11 8 14 13 10 8 6 3 3 9 11 6 18 31 4 21 25 29 30 27 29 28
38 37 35 23 17 11 12 17 18 13 7 14 13 8 7 11 20 27 25 20 17 18 12 10 6 10 5 4 4 3 5 5 5 9 7 15 8 5 18 17 22 24 23 22 22
40 38 35 18 17 13 13 17 15 6 6 13 4 4 3 14 22 27 20 17 19 14 8 7 7 5 2 4 12 5 2 4 3 1 10 10 15 9 6 16 19 18 16 16 18
40 39 34 14 18 8 12 8 11 4 19 12 16 11 25 14 22 22 15 12 10 4 4 5 3 7 11 14 15 12 12 9 4 9 4 7 13 11 10 9 11 20 28 23 18
41 40 33 11 11 7 9 8 7 11 12 23 21 20 15 10 17 21 12 5 4 8 3 3 14 11 12 14 15 14 13 9 6 10 7 8 10 10 10 13 19 20 20 21 16
43 41 28 9 7 9 8 10 14 16 5 14 6 8 7 19 15 19 13 5 6 6 8 10 10 7 12 10 13 14 12 8 8 7 15 11 11 8 5 11 23 29 26 21 25
44 40 20 9 3 9 8 17 22 11 3 6 4 1 7 28 5 15 7 6 3 5 5 9 10 17 11 14 12 15 9 9 5 5 5 2 5 6 8 8 9 17 25 29 27
45 36 14 7 9 10 15 19 18 4 3 4 3 4 32 3 21 5 4 5 7 8 4 7 7 5 12 15 7 11 7 8 6 6 3 5 3 6 5 8 12 14 30 30 26
44 31 12 6 14 16 20 22 0 5 5 6 7 18 11 29 5 7 7 8 4 4 6 15 14 6 7 9 14 2 5 7 3 3 5 9 7 4 5 13 16 8 20 32 25
42 22 10 10 15 21 18 10 4 3 6 6 11 14 21 7 6 5 7 4 2 5 3 5 5 4 7 4 10 8 7 2 8 6 4 9 8 12 6 6 6 10 19 29 28
42 7 11 17 18 16 15 5 1 2 5 8 12 20 4 7 5 5 5 3 4 3 4 3 4 6 6 10 6 13 10 5 6 6 9 5 9 12 22 15 13 4 25 27 29
44 10 7 18 20 17 3 4 4 2 6 11 14 3 3 5 4 6 6 4 3 3 1 3 5 1 8 6 10 4 8 8 2 3 4 4 11 7 7 7 6 9 20 32 32
41 9 5 22 17 8 5 3 3 3 8 6 4 1 6 9 8 10 4 3 2 4 4 2 7 2 4 4 6 6 9 5 3 3 5 7 19 10 7 13 11 5 10 30 31
28 6 10 20 10 9 3 4 5 10 13 5 5 9 10 7 5 9 6 6 3 1 2 4 4 4 3 5 12 6 4 4 5 4 4 5 9 6 11 2 11 10 9 17 26
18 4 15 19 8 4 2 5 9 7 15 6 4 4 5 5 9 8 7 7 3 4 4 4 3 5 9 3 3 6 7 5 6 5 3 2 5 3 4 5 5 7 11 11 20
18 6 10 15 4 3 6 5 4 5 10 5 5 3 9 5 8 8 8 4 10 7 3 2 3 4 5 2 4 3 6 5 3 3 3 1 5 3 6 5 6 6 12 22 29
10 5 7 10 6 2 6 5 5 12 11 7 7 9 6 9 11 8 16 9 9 15 36 21 7 7 6 3 2 5 7 7 6 4 7 6 4 8 6 3 5 10 23 31 34
11 2 4 5 4 8 4 4 5 9 5 11 5 7 15 8 21 7 16 20 15 11 4 4 5 8 15 13 7 6 9 5 13 7 9 6 2 7 8 4 5 19 27 32 32
8 7 7 8 12 6 3 3 7 7 5 7 5 20 19 13 17 26 23 23 6 2 2 2 2 2 10 15 14 10 11 8 4 5 10 3 4 4 8 1 14 19 30 30 31
10 7 4 5 5 3 2 3 10 17 11 16 16 19 20 16 29 41 36 28 14 5 2 2 2 2 3 3 10 6 15 10 5 6 10 9 5 8 11 9 12 22 29 30 34
Wind_Direction
3 0 356 354 349 342 338 336 337 335 337 339 342 342 340 333 324 314 302 287 269 238 260 247 235 224 195 201 204 193 199 230 221 177 203 114 152 199 230 209 201 198 224 256 324
359 358 355 352 348 343 339 342 343 348 348 349 345 340 338 334 331 17 9 130 107 38 348 311 254 218 196 193 200 188 215 224 179 189 221 200 219 274 316 206 229 240 223 268 321
358 357 352 351 346 342 344 351 353 351 347 345 338 337 340 338 335 44 18 298 296 311 328 316 271 223 221 206 196 209 239 230 228 225 240 245 219 251 226 268 229 249 269 287 318
358 355 351 349 346 345 349 354 351 344 344 342 337 339 338 341 35 339 338 309 313 309 298 297 251 207 222 214 214 248 230 246 237 239 253 214 235 225 226 235 238 248 282 284 306
356 352 349 348 345 344 347 350 342 338 335 336 337 339 342 344 17 346 347 344 336 342 331 273 221 209 204 224 236 249 258 272 235 252 264 268 256 247 258 251 253 259 260 268 289
355 350 348 345 343 342 346 348 333 331 327 334 328 339 348 329 8 358 343 336 324 329 324 285 240 237 274 241 207 260 254 256 266 267 248 256 267 259 140 223 253 254 260 264 265
355 349 348 343 341 344 349 342 327 322 321 325 324 340 322 320 351 343 337 331 318 316 315 311 251 231 243 302 296 283 286 280 230 237 235 255 267 240 248 252 263 265 265 268 271
354 349 347 340 338 341 341 343 325 320 317 326 324 325 273 321 344 344 332 330 328 309 296 299 259 241 237 272 312 322 274 216 240 187 241 171 255 144 234 227 237 252 261 268 276
352 350 346 336 332 332 334 336 322 316 313 323 315 317 274 326 334 330 327 320 316 317 281 268 223 208 192 176 330 251 258 236 309 200 187 195 257 234 242 214 228 236 248 255 268
352 350 346 335 331 327 341 339 334 314 265 316 287 323 246 313 340 325 335 313 306 300 277 210 195 173 155 163 226 237 246 306 224 308 211 236 242 296 301 224 234 237 236 245 251
351 348 345 334 333 332 350 4 353 308 316 252 286 269 285 303 324 313 321 302 294 255 211 207 167 203 205 213 230 238 268 282 303 300 331 248 258 252 248 243 240 241 245 243 245
352 346 343 335 345 349 354 7 350 317 295 297 284 272 286 320 311 309 301 271 216 246 226 248 243 227 208 215 224 229 229 243 282 288 292 293 290 257 215 216 235 240 240 229 224
351 344 343 340 324 342 340 340 331 330 291 298 281 267 307 332 301 288 278 245 230 251 249 234 240 235 203 212 212 220 224 223 236 276 288 292 284 232 221 211 221 233 243 237 218
351 344 343 348 14 338 345 333 331 312 37 281 311 294 319 333 281 312 285 254 249 254 282 256 261 221 219 225 212 236 210 226 239 221 239 157 287 249 183 206 211 212 225 237 221
350 344 340 356 357 353 334 332 336 142 350 286 267 292 327 287 288 306 266 247 248 245 254 261 286 237 231 231 184 242 188 204 235 211 207 246 302 267 171 200 213 209 214 224 221
350 345 341 319 349 338 327 330 203 42 267 329 324 325 326 325 274 283 308 277 275 283 229 252 223 253 220 238 208 147 160 183 236 200 233 221 209 267 191 202 217 210 207 216 208
350 348 356 355 330 329 330 327 23 142 359 324 312 324 319 297 300 345 313 299 308 330 336 293 210 245 202 218 196 202 143 198 213 202 237 184 223 248 259 261 216 181 192 213 208
348 5 21 3 346 341 331 49 238 345 299 316 318 309 266 356 308 300 277 275 251 198 288 317 322 177 200 207 186 186 178 174 193 170 223 194 223 234 229 249 258 224 195 197 204
346 344 357 360 347 341 350 51 224 317 338 329 322 328 289 324 319 317 279 246 245 155 296 311 272 203 239 280 176 210 202 210 196 189 114 178 257 298 224 222 224 234 186 195 207
347 358 347 349 345 348 68 274 256 299 340 327 278 156 309 314 314 333 295 234 235 198 170 269 285 302 218 250 267 169 163 191 242 196 178 180 231 226 188 208 208 214 200 199 203
352 6 348 353 351 39 94 260 292 313 0 329 286 294 293 294 295 314 272 304 269 281 49 258 231 279 212 191 206 181 193 170 151 181 175 172 229 204 237 163 187 200 213 203 197
351 354 346 2 46 29 354 302 299 303 337 286 290 267 287 305 296 281 243 210 247 247 254 237 269 265 242 250 92 236 191 190 179 238 244 263 257 252 233 209 233 221 202 180 184
339 309 351 20 65 334 310 299 277 309 330 323 297 260 316 312 306 268 275 276 280 251 217 33 234 300 315 87 138 240 190 187 105 103 248 197 280 308 106 144 213 219 171 148 147
349 355 351 49 101 54 334 297 311 317 304 352 277 285 306 295 274 274 284 304 308 292 282 274 199 225 240 136 149 271 207 183 197 138 248 282 319 15 36 119 121 137 140 139 136
12 38 9 321 345 333 287 279 318 340 317 313 281 261 324 302 303 257 298 298 288 292 261 347 223 216 244 255 216 244 275 186 206 195 175 265 52 352 346 336 133 140 133 127 131
18 7 345 293 299 327 329 304 311 313 285 296 252 303 306 286 275 292 306 304 275 8 298 298 272 273 271 247 229 222 234 239 209 228 141 331 327 269 305 284 109 107 118 119 129
8 351 329 294 322 344 264 333 307 313 281 251 281 303 302 285 310 293 283 276 255 270 270 237 229 247 278 131 160 235 217 193 162 194 130 190 201 40 14 106 103 103 111 113 116